Terminal Aerodrome Forecast
Issued by NWS Sioux Falls, SD

Home | Current Version | Previous Version | Graphics & Text | Print | Product List | Glossary On
Versions: 1 2 3 4 5 6 7 8 9 10 11 12 13 14 15 16 17 18 19 20 21 22 23 24
000
FTUS43 KFSD 231122
TAFHON
TAF
KHON 231122Z 2312/2412 36010KT 2SM -SN OVC005
      TEMPO 2313/2315 3SM -SN OVC007
     FM231500 34018G25KT 4SM -SN BR OVC008
     FM232000 33020G28KT P6SM OVC008
     FM240200 32014KT P6SM OVC008
     FM240600 32013KT P6SM OVC012=

USA.gov is the U.S. government's official web portal to all federal, state and local government web resources and services.